sat.trackr.live / text

‹ back to catalog

ROBUSTA-3A (MEDITERRAN*)

NORAD 60243 · 2024-128J

PAYLOAD ACTIVE UNKNOWN

§ Identity

Operator
Country
FR
Launch date
2024-07-09
Launch site
FRGUI
Launch vehicle
Mass (kg)
RCS (m²)

Purposes: tech_demo

External: N2YO · Heavens-Above · Gunter

§ Orbital elements

Epoch: 2026-05-25T02:42:46.663776Z

Period
95.28 min
Inclination
61.9869°
Eccentricity
0.0044560
Mean motion
15.11263722 rev/d
Perigee alt
501.6 km
Apogee alt
563.1 km
Semi-major
6,910.5 km
B*
5.0682e-4
RAAN
289.8206°
Arg perigee
123.5945°
Mean anomaly
236.9416°
Rev number
10,293

§ Raw data

ROBUSTA-3A (MEDITERRAN*)1 60243U 24128J   26145.11304009  .00008558  00000+0  50682-3 0  99972 60243  61.9869 289.8206 0044560 123.5945 236.9416 15.11263722102935

JSON: /api/v1/satellites/60243 · /tle

For live sub-satellite position, see the globe view (requires WebGL).

§ Visibility from observer

Set your observer location to see the next 7 days of passes ≥ 10°. The values pass through the URL so the page stays shareable.

No JS? Fill the form by hand. The geolocation button needs JavaScript.

§ Radio — SatNOGS DB

ModeDescriptionDownlinkUplink
BPSK Mode S - Transmitter 2.202 GHz
GMSK Mode U - GMSK38k4 - AX.25 436.750 MHz
GMSK Mode U - GMSK9k6 - AX.25 436.750 MHz

3 transmitters · refreshed weekly from db.satnogs.org